Bennington, NE

4:54 AM CST on December 08, 2016 (GMT -0600)
Blair Municipal

Weather History for KBTA - June, 2013

Change the Weather History Date:

Sunday, June 2, 2013

  Actual Average (KOMA) Record (KOMA)
Temperature  
Mean Temperature 58 °F 68 °F  
Max Temperature 66 °F 79 °F 98 °F (1911)
Min Temperature 50 °F 57 °F 44 °F (1964)
Degree Days  
Heating Degree Days 7 2  
Month to date heating degree days 4  
Since 1 June heating degree days 4  
Since 1 July heating degree days 6154  
Cooling Degree Days 0 4  
Month to date cooling degree days 8  
Year to date cooling degree days 90  
Since 1 June cooling degree days 8  
Growing Degree Days 8 (Base 50)    
Moisture  
Dew Point 44 °F    
Average Humidity 63    
Maximum Humidity 86    
Minimum Humidity 39    
Precipitation  
Precipitation 0.00 in 0.17 in 1.77 in (1941)
Month to date precipitation 0.33  
Year to date precipitation 11.61  
Snow  
Snow 0.00 in 0.00 in - ()
Month to date snowfall 0.0  
Since 1 July snowfall 26.4  
Snow Depth -    
Sea Level Pressure  
Sea Level Pressure 30.07 in    
Wind  
Wind Speed 9 mph (North)    
Max Wind Speed 16 mph    
Max Gust Speed 18 mph    
Visibility 10 miles    
Events      
T = Trace of Precipitation, MM = Missing Value Source: NWS Daily Summary

Daily Weather History Graph

Daily Weather History Graph

Search for Another Location

Airport or City:

Trip Planner

Search our weather history database for the weather conditions in past years. The results will help you decide how hot, cold, wet, or windy it might be!

Date:

Astronomy

Jun. 02, 2013 Rise Set
Actual Time 5:52 AM CDT 8:52 PM CDT
Civil Twilight 5:19 AM CDT 9:25 PM CDT
Nautical Twilight 4:37 AM CDT 10:08 PM CDT
Astronomical Twilight 3:47 AM CDT 10:58 PM CDT
Moon 2:23 AM CDT (6/2) 3:21 PM CDT (6/2)
Length of Visible Light 16h 06m
Length of Day
14h 59m
Waning Crescent, 30% of the Moon is Illuminated
Jun 2
Waning Crescent
Jun 8
New
Jun 16
First Quarter
Jun 23
Full
Jun 29
Last Quarter

Hourly Weather History & Observations

Time (CDT) Temp. Dew Point Humidity Pressure Visibility Wind Dir Wind Speed Gust Speed Precip Events Conditions
12:15 AM 52.3 °F 47.8 °F 85% 30.03 in 10.0 mi NW 13.8 mph - N/A   Overcast
12:35 AM 52.0 °F 47.5 °F 85% 30.03 in 10.0 mi NW 11.5 mph 18.4 mph N/A   Overcast
12:55 AM 52.7 °F 47.7 °F 83% 30.04 in 10.0 mi NW 10.4 mph - N/A   Overcast
1:15 AM 52.3 °F 47.7 °F 84% 30.04 in 10.0 mi NNW 16.1 mph - N/A   Overcast
1:35 AM 52.0 °F 47.1 °F 83% 30.05 in 10.0 mi NNW 13.8 mph - N/A   Overcast
1:55 AM 51.8 °F 47.3 °F 85% 30.05 in 10.0 mi NW 9.2 mph - N/A   Overcast
2:15 AM 50.9 °F 46.8 °F 86% 30.05 in 10.0 mi NW 10.4 mph - N/A   Overcast
2:35 AM 50.5 °F 46.6 °F 86% 30.06 in 10.0 mi NW 9.2 mph - N/A   Overcast
2:55 AM 50.4 °F 45.9 °F 85% 30.06 in 10.0 mi NW 12.7 mph - N/A   Overcast
3:15 AM 50.5 °F 45.5 °F 83% 30.05 in 10.0 mi NNW 13.8 mph 18.4 mph N/A   Overcast
3:35 AM 50.9 °F 45.0 °F 80% 30.05 in 10.0 mi NNW 10.4 mph 18.4 mph N/A   Overcast
3:55 AM 51.1 °F 44.8 °F 79% 30.06 in 10.0 mi NNW 11.5 mph - N/A   Overcast
4:15 AM 51.3 °F 44.6 °F 78% 30.06 in 10.0 mi NNW 9.2 mph - N/A   Overcast
4:35 AM 51.3 °F 44.1 °F 76% 30.05 in 10.0 mi North 12.7 mph - N/A   Overcast
4:55 AM 51.3 °F 44.1 °F 76% 30.05 in 10.0 mi NNW 9.2 mph 16.1 mph N/A   Overcast
5:15 AM 51.4 °F 43.5 °F 74% 30.07 in 10.0 mi NNW 9.2 mph - N/A   Overcast
5:35 AM 51.6 °F 43.2 °F 73% 30.08 in 10.0 mi NNW 8.1 mph - N/A   Overcast
5:55 AM 51.4 °F 43.7 °F 75% 30.08 in 10.0 mi North 10.4 mph 17.3 mph N/A   Overcast
6:15 AM 51.1 °F 44.1 °F 77% 30.08 in 10.0 mi NNW 10.4 mph - N/A   Overcast
6:35 AM 50.9 °F 44.2 °F 78% 30.09 in 10.0 mi NNW 8.1 mph - N/A   Overcast
6:55 AM 50.9 °F 44.4 °F 78% 30.08 in 10.0 mi NNW 9.2 mph - N/A   Overcast
7:15 AM 51.4 °F 44.6 °F 77% 30.09 in 10.0 mi NNW 5.8 mph - N/A   Overcast
7:35 AM 51.8 °F 44.8 °F 77% 30.10 in 10.0 mi NNW 9.2 mph - N/A   Overcast
7:55 AM 52.0 °F 44.8 °F 76% 30.10 in 10.0 mi NW 9.2 mph - N/A   Overcast
8:15 AM 52.7 °F 44.4 °F 73% 30.11 in 10.0 mi NNW 10.4 mph - N/A   Overcast
8:35 AM 53.2 °F 43.5 °F 70% 30.11 in 10.0 mi NNW 6.9 mph - N/A   Overcast
8:55 AM 53.8 °F 43.2 °F 67% 30.12 in 10.0 mi NNW 9.2 mph - N/A   Overcast
9:15 AM 53.6 °F 44.1 °F 70% 30.11 in 10.0 mi NNW 5.8 mph - N/A   Overcast
9:35 AM 55.0 °F 43.7 °F 66% 30.12 in 10.0 mi NNW 9.2 mph - N/A   Overcast
9:55 AM 55.0 °F 42.8 °F 63% 30.12 in 10.0 mi NW 10.4 mph - N/A   Overcast
10:15 AM 55.4 °F 43.2 °F 63% 30.12 in 10.0 mi NNW 10.4 mph - N/A   Overcast
10:35 AM 55.9 °F 43.5 °F 63% 30.12 in 10.0 mi NW 10.4 mph - N/A   Overcast
10:55 AM 56.3 °F 43.5 °F 62% 30.12 in 10.0 mi NNW 8.1 mph - N/A   Overcast
11:15 AM 57.2 °F 44.1 °F 62% 30.12 in 10.0 mi NNW 8.1 mph - N/A   Overcast
11:35 AM 58.1 °F 44.1 °F 60% 30.13 in 10.0 mi North 8.1 mph - N/A   Overcast
11:55 AM 58.1 °F 43.7 °F 59% 30.12 in 10.0 mi North 10.4 mph - N/A   Overcast
12:15 PM 58.5 °F 43.5 °F 58% 30.11 in 10.0 mi North 5.8 mph - N/A   Overcast
12:35 PM 59.7 °F 44.2 °F 57% 30.10 in 10.0 mi NNW 9.2 mph - N/A   Mostly Cloudy
12:55 PM 59.7 °F 43.5 °F 55% 30.10 in 10.0 mi NNW 6.9 mph - N/A   Mostly Cloudy
1:15 PM 60.6 °F 44.4 °F 55% 30.10 in 10.0 mi North 3.5 mph 9.2 mph N/A   Mostly Cloudy
1:35 PM 60.6 °F 43.7 °F 54% 30.10 in 10.0 mi NNW 6.9 mph - N/A   Mostly Cloudy
1:55 PM 61.7 °F 43.9 °F 52% 30.10 in 10.0 mi NNE 8.1 mph - N/A   Scattered Clouds
2:15 PM 61.5 °F 43.0 °F 51% 30.10 in 10.0 mi NNW 5.8 mph - N/A   Scattered Clouds
2:35 PM 63.0 °F 43.3 °F 49% 30.09 in 10.0 mi NNW 5.8 mph - N/A   Mostly Cloudy
2:55 PM 63.5 °F 45.3 °F 52% 30.09 in 10.0 mi North 6.9 mph - N/A   Scattered Clouds
3:15 PM 63.1 °F 43.5 °F 49% 30.09 in 10.0 mi ENE 3.5 mph - N/A   Clear
3:35 PM 64.4 °F 44.2 °F 48% 30.08 in 10.0 mi NNE 4.6 mph - N/A   Clear
3:55 PM 64.4 °F 43.3 °F 46% 30.08 in 10.0 mi Calm Calm - N/A   Clear
4:15 PM 64.6 °F 41.9 °F 44% 30.06 in 10.0 mi North 4.6 mph - N/A   Clear
4:35 PM 65.5 °F 42.3 °F 43% 30.06 in 10.0 mi NNW 4.6 mph - N/A   Clear
4:55 PM 65.5 °F 42.1 °F 43% 30.05 in 10.0 mi North 5.8 mph - N/A   Clear
5:15 PM 65.5 °F 41.7 °F 42% 30.05 in 10.0 mi ENE 4.6 mph - N/A   Clear
5:35 PM 66.2 °F 43.2 °F 43% 30.04 in 10.0 mi NNE 3.5 mph - N/A   Clear
5:55 PM 65.8 °F 40.1 °F 39% 30.04 in 10.0 mi Calm Calm - N/A   Clear
6:15 PM 66.0 °F 41.0 °F 40% 30.03 in 10.0 mi NNE 4.6 mph - N/A   Clear
6:35 PM 65.7 °F 40.1 °F 39% 30.03 in 10.0 mi Calm Calm - N/A   Clear
6:55 PM 65.7 °F 40.8 °F 40% 30.01 in 10.0 mi NE 3.5 mph - N/A   Clear
7:15 PM 65.5 °F 41.7 °F 42% 30.02 in 10.0 mi NE 3.5 mph - N/A   Clear
7:35 PM 64.9 °F 41.9 °F 43% 30.01 in 10.0 mi ENE 3.5 mph - N/A   Clear
7:55 PM 64.4 °F 41.5 °F 43% 30.01 in 10.0 mi Calm Calm - N/A   Clear
8:15 PM 63.5 °F 42.3 °F 46% 30.01 in 10.0 mi SE 3.5 mph - N/A   Clear
8:35 PM 62.6 °F 43.0 °F 49% 30.01 in 10.0 mi SE 3.5 mph - N/A   Clear
8:55 PM 61.3 °F 43.5 °F 52% 30.01 in 10.0 mi SSE 3.5 mph - N/A   Clear
9:15 PM 61.0 °F 43.5 °F 53% 30.02 in 10.0 mi SE 3.5 mph - N/A   Clear
9:35 PM 59.2 °F 44.1 °F 57% 30.03 in 10.0 mi East 5.8 mph - N/A   Clear
9:55 PM 57.0 °F 45.5 °F 65% 30.03 in 10.0 mi ESE 5.8 mph - N/A   Clear
10:15 PM 57.4 °F 45.3 °F 64% 30.03 in 10.0 mi ESE 4.6 mph - N/A   Clear
10:35 PM 57.6 °F 44.8 °F 62% 30.04 in 10.0 mi ESE 4.6 mph - N/A   Clear
10:55 PM 57.0 °F 45.3 °F 65% 30.04 in 10.0 mi ESE 3.5 mph - N/A   Clear
11:15 PM 57.2 °F 44.8 °F 63% 30.03 in 10.0 mi ESE 4.6 mph - N/A   Clear
11:35 PM 56.8 °F 45.0 °F 64% 30.03 in 10.0 mi ESE 4.6 mph - N/A   Clear
11:55 PM 56.7 °F 44.8 °F 64% 30.03 in 10.0 mi ESE 3.5 mph - N/A   Clear